Location: Six Mile Lake
(44.9000°N, 79.7170°W)
Time: 10:26:44
(UTC-04:00)

UKube-1 - Pass Details

Date: 03 July 2022
Orbit: 608 x 615 km, 98.4° (Epoch: 08 August)

Event Time Altitude Azimuth Distance (km) Brightness Sun altitude
Rises 23:29:19 0° 12° (NNE) 2,892 ? -17.4°
Reaches altitude 10° 23:31:31 10° 11° (NNE) 1,981 ? -17.6°
Maximum altitude 23:35:49 80° 286° (WNW) 627 ? -17.9°
Enters shadow 23:38:08 27° 202° (SSW) 1,191 ? -18.1°
